Temperature
19 19 19 19 18 18 18 18 18 17 17 17 16 16 16 16 16 16 15 15 15 15 15 15 15 15 15 15 15 15 15 15 15 16 15 15 15 15 15 15 15 15 15
19 19 19 18 18 18 18 18 17 17 17 16 16 16 16 15 15 15 15 15 15 15 15 15 15 15 14 14 14 14 15 14 15 15 15 15 15 14 14 14 14 14 14
19 18 18 18 18 18 18 17 17 17 17 16 16 16 15 15 15 15 15 15 15 14 14 14 14 14 14 14 14 14 14 14 14 14 14 14 14 14 14 14 14 14 14
18 18 18 18 18 18 17 17 17 17 17 16 16 16 15 15 15 15 15 15 14 14 14 14 14 14 14 14 14 14 14 14 14 14 14 14 14 14 14 14 14 14 14
18 18 18 18 17 17 17 17 17 16 16 16 16 15 15 15 15 15 15 14 14 14 14 14 14 14 14 14 14 14 13 13 14 14 14 14 14 14 14 14 14 14 14
18 18 18 17 17 17 17 17 16 16 16 16 15 15 15 15 15 15 15 14 14 14 14 14 14 14 14 14 14 13 13 13 13 13 13 13 13 13 13 13 13 13 13
18 17 17 17 17 17 17 16 16 16 16 15 15 15 15 15 15 15 14 14 14 14 14 13 13 13 13 13 13 13 13 13 13 13 13 13 13 12 12 12 12 12 13
17 17 17 17 16 16 16 16 16 15 15 15 15 14 14 14 14 14 14 14 14 13 13 13 13 13 13 13 13 13 13 13 13 12 12 12 12 12 12 12 12 12 12
17 17 17 16 16 16 16 16 15 15 15 14 14 14 14 14 14 14 14 13 13 13 13 13 13 13 13 13 12 12 12 12 12 12 12 12 12 12 12 12 12 12 12
17 16 16 16 16 16 15 15 15 15 14 14 14 14 14 14 14 14 14 13 13 13 13 13 13 13 12 12 12 12 12 12 12 12 12 12 12 12 12 12 12 12 12
16 16 16 16 16 15 15 15 14 14 14 14 13 13 13 13 13 13 13 13 13 13 13 13 12 12 12 12 12 12 12 12 11 12 12 12 12 12 12 11 11 11 11
16 16 15 15 15 15 14 14 14 14 14 13 13 13 13 13 13 13 13 13 12 12 12 12 12 12 12 12 12 12 12 12 11 11 11 12 12 11 11 11 11 11 11
15 15 15 15 15 14 14 14 14 14 13 13 13 13 13 13 13 12 12 12 12 12 12 12 12 12 12 11 11 11 11 11 11 11 11 11 11 11 11 11 11 11 11
15 15 15 14 14 14 14 14 14 13 13 13 13 13 12 12 12 12 12 12 12 11 11 11 11 11 11 11 11 11 11 11 11 11 11 11 11 11 11 11 11 11 11
14 14 14 14 14 13 13 13 13 13 13 12 12 12 12 12 12 12 12 11 11 11 11 11 11 11 11 11 11 11 10 10 10 10 10 10 10 10 10 10 10 10 10
14 14 14 14 13 13 13 13 13 12 12 12 12 12 11 11 11 11 11 11 11 11 11 10 11 11 11 10 10 10 10 10 10 10 10 10 10 10 10 10 10 10 10
13 13 13 13 13 13 13 13 12 12 12 12 12 11 11 11 11 11 11 11 11 10 10 10 10 10 10 10 10 10 10 10 9 9 9 9 9 9 9 9 10 10 10
13 13 13 13 13 13 12 12 12 12 12 12 11 11 11 11 11 11 11 10 10 10 10 10 10 10 10 10 10 10 10 9 9 9 9 9 9 9 9 9 9 9 9
13 13 12 12 12 12 12 12 12 12 11 11 11 11 11 10 10 10 10 10 10 10 10 10 10 10 10 9 9 9 9 9 9 9 9 8 8 8 9 8 9 8 8
12 12 12 12 12 12 11 11 11 11 11 11 11 11 10 10 10 10 10 10 9 9 9 9 9 9 9 9 9 9 9 8 8 8 8 8 8 8 8 8 8 8 8
12 12 12 12 12 11 11 11 11 11 11 11 11 10 10 10 10 10 10 9 9 9 9 9 9 9 9 9 9 8 8 8 8 8 8 8 8 8 8 8 8 8 8
12 12 11 11 11 11 11 11 11 10 10 10 10 10 10 10 10 10 9 9 9 9 9 9 9 9 9 8 8 8 8 8 8 8 8 7 7 7 7 7 7 7 7
11 11 11 11 11 11 10 11 11 10 10 10 10 10 10 9 9 9 9 9 9 9 9 8 8 8 8 8 8 8 8 8 8 7 7 7 7 7 7 7 7 7 7
11 11 11 11 11 11 10 10 10 10 10 10 10 10 9 9 9 9 9 9 8 8 8 8 8 8 8 8 8 8 7 7 7 7 7 7 7 7 7 6 7 7 7
10 10 10 10 10 10 10 10 10 10 10 10 9 9 9 9 9 9 9 8 8 8 8 8 8 8 8 8 7 7 7 7 7 7 7 7 6 6 6 6 6 6 6
10 10 10 10 10 10 10 10 10 9 9 9 9 9 9 9 9 8 8 8 8 8 8 8 8 8 8 7 7 7 7 7 7 7 7 6 6 6 6 6 6 6 6
Wind_Speed
7 7 6 6 6 6 5 5 4 4 4 4 3 3 3 3 3 4 4 4 4 4 4 3 3 4 4 4 4 4 4 4 6 6 5 4 4 5 3 5 6 6 6
8 7 6 6 6 6 5 5 5 5 4 4 4 4 4 3 4 4 5 5 5 5 4 4 4 3 3 4 4 4 4 5 6 7 5 4 4 5 5 6 6 5 5
7 7 7 7 6 6 6 5 5 5 5 4 4 4 4 4 4 4 5 5 5 5 5 4 4 4 4 3 4 4 4 4 5 6 6 4 4 4 4 5 6 5 6
7 7 7 6 6 6 6 6 5 5 5 4 4 4 5 4 4 4 5 5 5 5 5 4 4 4 4 4 4 4 5 5 5 6 6 5 4 4 4 4 5 4 5
7 7 6 6 5 5 5 5 5 5 5 4 4 4 4 4 3 4 5 5 5 5 5 5 4 3 3 4 4 4 5 5 5 5 6 5 5 4 4 5 5 5 6
6 6 6 6 5 5 5 4 4 4 4 4 4 4 4 3 1 2 4 4 4 5 5 4 5 4 3 4 5 5 6 6 6 6 6 6 6 6 5 6 6 6 6
6 6 6 5 5 5 5 5 5 4 4 4 4 4 3 1 1 1 4 5 5 4 4 4 4 3 4 4 5 7 7 7 8 7 7 7 7 6 7 8 6 7 7
5 5 5 5 5 5 5 5 5 4 4 4 4 3 3 2 1 2 5 6 5 5 5 4 4 4 3 3 5 5 5 6 6 7 6 7 7 6 6 8 8 8 7
4 4 5 5 5 5 5 5 4 4 4 5 4 4 4 3 1 2 5 4 4 5 5 4 4 4 2 4 5 6 6 6 6 6 7 7 7 7 7 7 7 7 7
3 3 3 4 4 5 4 4 4 4 4 4 4 4 4 3 2 2 5 4 4 4 4 4 3 3 3 4 6 6 7 7 7 7 7 8 8 8 8 7 7 7 7
2 2 2 3 3 4 4 4 4 4 3 4 4 4 4 3 3 3 4 4 5 5 5 4 2 2 3 5 7 6 7 8 8 7 7 6 6 5 6 6 6 7 7
2 2 2 2 3 2 3 3 3 3 4 4 4 4 4 3 3 3 4 5 6 5 5 4 2 1 4 6 6 5 6 8 7 6 6 6 5 5 5 6 6 7 7
2 2 2 2 2 2 3 3 3 3 4 4 4 4 3 2 2 4 5 5 6 5 4 2 3 4 6 6 6 7 6 5 5 6 6 6 6 6 6 5 5 6 7
2 2 2 2 2 2 3 3 3 3 3 4 4 4 3 3 2 2 3 3 4 5 4 4 6 8 7 5 5 5 4 4 5 5 6 6 6 5 5 5 5 5 6
2 2 2 2 2 2 2 2 3 3 3 4 4 4 4 4 3 2 3 3 4 4 4 4 4 4 4 4 4 4 4 4 4 4 5 5 6 5 5 5 5 6 6
2 2 2 2 2 2 2 2 2 3 1 3 4 5 4 3 1 2 3 3 3 4 5 5 4 5 5 5 4 4 4 4 4 5 5 5 6 6 5 5 5 6 6
3 3 3 3 3 3 3 4 4 3 3 4 5 5 5 3 2 3 4 4 5 5 6 5 5 5 5 5 5 4 4 4 4 5 5 5 5 5 5 5 6 6 6
3 3 3 3 4 4 4 5 4 5 4 4 4 6 6 6 6 5 5 4 4 5 5 5 5 5 5 5 5 4 4 4 4 4 5 5 5 5 5 5 5 6 6
3 3 3 3 4 4 4 5 5 5 5 4 4 3 4 6 7 7 7 5 5 4 4 4 4 4 4 4 4 4 4 4 4 4 4 5 5 5 5 6 6 6 7
3 2 3 4 4 4 4 5 5 5 5 5 5 4 2 3 3 3 4 5 5 5 4 4 4 5 4 4 4 4 5 4 4 4 4 4 5 5 5 6 6 6 6
3 2 3 5 5 4 5 5 5 5 5 5 6 4 2 4 5 4 4 5 5 5 5 5 5 5 4 4 4 4 6 5 5 5 5 5 5 5 5 5 5 6 6
4 4 4 4 5 5 5 5 5 5 6 6 6 4 5 5 5 4 5 5 5 5 5 5 5 5 4 4 4 5 5 5 5 5 5 5 5 6 6 5 5 6 6
5 5 4 4 4 4 5 5 5 5 6 6 5 5 4 4 5 5 5 5 5 5 5 5 5 5 4 4 4 4 5 5 5 5 6 6 6 5 5 6 6 7 6
5 6 5 5 5 5 5 5 5 5 5 5 5 5 4 4 5 5 5 4 4 4 4 4 4 5 6 4 4 4 4 5 6 5 6 6 6 6 6 6 6 6 6
5 6 5 6 6 5 5 5 5 5 5 5 4 5 4 4 4 4 4 4 4 5 5 5 4 5 6 5 5 4 2 3 5 7 6 5 6 6 6 6 5 5 5
6 6 6 6 6 5 5 5 5 5 5 4 4 4 4 4 4 4 4 4 4 5 5 4 4 5 5 4 4 2 1 2 4 6 7 5 5 5 5 5 5 4 4
Wind_Direction
178 184 186 189 191 194 198 202 206 211 208 213 221 233 240 248 254 257 264 266 271 277 280 276 272 286 286 283 281 281 281 277 275 286 286 284 274 277 274 269 261 253 238
177 179 183 187 190 193 197 203 207 213 218 215 225 236 247 253 259 261 263 260 262 268 270 270 267 265 275 286 291 285 283 280 275 282 284 280 272 266 270 271 268 260 264
176 180 181 188 192 198 202 202 209 214 220 223 227 239 251 257 261 264 266 260 258 262 266 264 264 265 274 283 284 286 286 282 278 278 282 281 274 271 273 273 273 269 263
177 180 183 190 193 198 201 202 208 214 218 226 230 238 247 253 262 268 265 258 255 259 262 263 262 259 267 276 275 281 287 287 282 279 281 279 275 275 271 274 273 266 270
179 184 188 192 194 194 197 204 210 216 219 223 231 233 243 246 263 271 268 254 252 255 256 256 258 257 282 286 290 295 292 286 286 282 281 284 281 286 282 282 279 278 270
184 189 188 191 193 191 193 201 208 216 225 229 231 234 244 261 8 316 285 263 255 256 257 259 257 237 238 244 262 278 284 281 287 287 280 283 286 285 290 283 283 282 282
185 192 190 189 194 200 202 204 212 214 220 231 236 241 247 259 34 301 286 268 261 266 269 272 278 278 262 269 249 238 251 251 259 271 280 284 286 289 288 282 278 279 283
186 192 193 194 199 203 205 212 221 223 222 225 231 235 241 237 183 260 272 253 259 265 269 270 273 283 287 290 278 275 273 269 262 265 276 278 282 288 281 275 278 272 270
186 197 200 201 205 208 213 219 223 223 230 233 231 230 236 240 206 261 267 254 253 257 262 264 263 260 289 290 272 274 279 280 255 247 260 265 271 272 275 273 273 274 277
194 200 198 203 213 217 217 218 221 220 227 237 234 231 236 249 195 244 272 259 261 261 256 248 226 250 278 271 266 272 276 284 289 281 261 251 252 243 237 253 265 269 275
189 187 196 208 216 214 215 217 220 224 230 240 242 241 239 246 211 212 263 267 274 269 265 259 241 185 249 261 266 271 278 285 281 279 277 271 264 258 251 251 259 265 268
173 178 193 212 225 202 199 209 219 230 233 233 238 244 239 233 239 212 229 258 290 276 272 272 265 197 247 256 262 272 275 274 274 278 281 284 285 284 278 272 265 264 265
171 185 190 193 206 217 219 218 223 231 248 250 246 248 253 253 219 195 216 238 260 265 278 299 289 252 254 249 239 247 257 267 276 280 284 289 292 290 284 276 271 264 264
188 201 198 203 205 216 240 241 241 246 257 265 264 265 267 264 270 272 267 252 239 253 270 244 224 232 242 256 256 249 258 273 280 283 290 296 299 290 281 283 285 283 277
214 228 233 229 217 219 236 264 259 256 260 263 272 272 270 270 290 328 285 279 285 289 284 270 270 268 263 265 267 270 270 266 271 280 286 295 297 297 296 295 289 285 283
245 250 258 255 246 242 240 257 328 290 208 228 254 271 284 296 329 278 268 281 294 286 272 265 272 274 275 278 277 274 272 275 283 286 285 288 292 295 295 295 293 288 284
269 272 272 267 264 256 250 255 266 271 239 233 233 238 248 266 258 255 254 248 250 247 255 266 271 274 276 278 276 278 284 288 289 286 289 291 294 297 296 292 290 290 294
278 264 262 263 263 261 255 259 266 271 274 278 247 217 217 223 227 230 231 239 250 233 257 269 273 276 278 279 281 281 282 279 276 282 291 296 297 296 292 291 290 295 296
280 280 277 278 270 265 268 269 271 272 274 276 280 254 212 219 215 220 217 248 261 261 264 273 280 282 280 281 285 287 287 281 285 288 291 294 297 296 294 293 292 288 288
268 267 269 270 268 269 268 270 274 274 274 272 272 279 273 262 261 240 232 246 254 261 267 271 273 275 278 282 283 282 280 277 277 277 292 294 293 293 295 296 298 295 291
286 267 246 263 267 268 272 274 274 274 274 277 274 268 245 264 260 256 255 253 257 262 263 263 266 267 264 265 271 276 279 283 286 290 295 297 300 300 300 297 297 297 294
284 275 264 269 271 267 273 273 274 277 278 279 283 267 208 251 266 262 258 261 262 261 258 255 259 262 262 262 264 271 278 283 286 289 293 294 294 295 297 299 301 300 298
279 277 275 274 272 267 264 271 275 276 279 281 282 282 268 265 267 266 265 265 264 264 261 257 256 261 263 263 266 269 275 280 286 292 295 293 289 290 293 292 292 292 293
279 277 277 273 270 268 269 273 273 275 279 280 280 278 276 268 265 267 269 272 273 271 267 260 256 260 265 269 273 275 286 300 298 286 285 284 287 292 291 290 291 291 293
275 275 277 277 273 271 274 274 274 278 282 283 284 284 282 279 274 274 273 269 267 264 265 262 258 258 259 264 274 286 331 326 303 297 281 277 280 282 284 287 291 294 290
280 277 274 274 274 276 276 273 274 280 283 287 288 287 287 283 279 278 278 276 273 268 268 262 258 262 266 266 274 296 306 285 286 290 279 270 272 279 289 288 289 284 283
Height
1514 1516 1517 1519 1520 1521 1522 1523 1523 1524 1524 1524 1524 1524 1524 1523 1523 1522 1522 1521 1520 1520 1520 1519 1519 1518 1518 1518 1518 1517 1517 1516 1515 1515 1514 1513 1512 1511 1510 1509 1509 1508 1507
1512 1513 1515 1516 1517 1518 1519 1520 1521 1521 1522 1522 1522 1522 1521 1521 1520 1519 1518 1518 1517 1517 1517 1516 1516 1516 1515 1515 1515 1515 1514 1513 1513 1511 1511 1510 1509 1508 1507 1506 1506 1505 1504
1509 1511 1512 1514 1515 1515 1516 1517 1518 1518 1519 1519 1519 1518 1518 1518 1517 1516 1515 1515 1514 1514 1514 1513 1513 1513 1513 1513 1512 1512 1511 1511 1510 1509 1508 1507 1506 1505 1504 1503 1502 1501 1501
1507 1508 1510 1511 1512 1513 1514 1514 1515 1516 1516 1516 1516 1515 1515 1514 1514 1513 1512 1512 1511 1511 1510 1510 1510 1510 1509 1509 1509 1508 1508 1507 1507 1506 1505 1504 1503 1502 1501 1500 1499 1498 1498
1505 1506 1507 1508 1509 1510 1511 1512 1513 1513 1513 1513 1513 1513 1512 1512 1510 1509 1508 1508 1508 1507 1507 1507 1507 1506 1506 1505 1506 1505 1505 1504 1504 1503 1502 1501 1500 1499 1498 1497 1496 1495 1493
1502 1504 1505 1506 1507 1508 1508 1509 1509 1510 1510 1510 1509 1509 1509 1508 1507 1505 1505 1505 1504 1504 1503 1503 1503 1502 1502 1502 1501 1501 1501 1500 1500 1499 1498 1497 1496 1495 1494 1494 1493 1492 1490
1500 1501 1502 1503 1504 1505 1505 1506 1506 1507 1507 1506 1506 1506 1505 1505 1504 1503 1502 1502 1501 1501 1500 1499 1499 1500 1499 1498 1497 1497 1497 1497 1496 1496 1495 1493 1493 1492 1491 1490 1489 1487 1486
1497 1499 1500 1500 1501 1502 1503 1503 1503 1504 1504 1503 1503 1503 1502 1501 1500 1500 1499 1499 1498 1497 1497 1496 1496 1496 1495 1495 1494 1494 1494 1493 1493 1492 1491 1490 1489 1487 1486 1486 1485 1484 1482
1495 1496 1496 1498 1499 1499 1500 1500 1500 1501 1501 1501 1500 1499 1499 1498 1497 1496 1496 1496 1495 1494 1494 1493 1493 1493 1492 1492 1491 1491 1490 1490 1489 1488 1487 1485 1484 1483 1483 1482 1482 1481 1479
1493 1494 1494 1495 1496 1497 1497 1497 1497 1497 1498 1498 1497 1497 1496 1495 1494 1494 1493 1493 1492 1492 1491 1490 1490 1489 1489 1488 1488 1487 1487 1486 1485 1484 1483 1481 1480 1479 1479 1478 1477 1476 1475
1491 1492 1492 1493 1493 1494 1494 1494 1495 1495 1495 1495 1494 1494 1493 1493 1492 1490 1490 1489 1489 1489 1488 1488 1487 1486 1485 1485 1484 1483 1482 1482 1481 1480 1479 1478 1477 1476 1475 1474 1473 1472 1471
1490 1490 1490 1491 1491 1492 1491 1491 1491 1492 1492 1491 1491 1491 1490 1490 1489 1487 1487 1486 1485 1485 1485 1484 1483 1482 1481 1481 1480 1479 1478 1478 1478 1477 1476 1475 1473 1472 1471 1469 1468 1467 1465
1488 1488 1488 1488 1488 1489 1489 1488 1488 1489 1489 1489 1488 1488 1488 1487 1486 1485 1484 1483 1482 1481 1481 1480 1479 1478 1477 1477 1476 1475 1475 1474 1474 1473 1472 1470 1469 1467 1466 1465 1464 1462 1461
1486 1486 1486 1486 1486 1486 1486 1486 1486 1486 1486 1486 1485 1485 1484 1484 1483 1482 1481 1480 1479 1479 1478 1476 1475 1474 1474 1473 1472 1472 1471 1471 1470 1469 1468 1466 1465 1464 1462 1461 1460 1458 1457
1484 1484 1484 1484 1484 1484 1484 1484 1484 1483 1483 1483 1482 1481 1481 1480 1480 1479 1478 1477 1477 1476 1474 1473 1472 1472 1471 1470 1469 1469 1468 1467 1466 1465 1464 1462 1461 1460 1458 1457 1456 1455 1453
1482 1482 1482 1482 1482 1482 1481 1481 1480 1481 1480 1479 1478 1478 1476 1476 1475 1475 1474 1473 1472 1472 1471 1470 1469 1468 1467 1467 1466 1465 1464 1464 1463 1462 1460 1459 1458 1456 1455 1454 1452 1451 1450
1480 1480 1480 1480 1479 1479 1479 1478 1477 1477 1476 1475 1474 1473 1472 1471 1471 1470 1470 1469 1469 1468 1468 1467 1466 1465 1464 1463 1462 1462 1461 1460 1459 1458 1457 1456 1454 1453 1451 1450 1449 1447 1446
1478 1477 1477 1477 1477 1477 1476 1475 1475 1474 1473 1471 1471 1470 1469 1468 1467 1466 1466 1465 1465 1464 1464 1464 1463 1462 1461 1460 1459 1458 1457 1456 1455 1454 1453 1452 1451 1449 1448 1446 1445 1443 1442
1475 1475 1474 1474 1474 1474 1473 1472 1472 1471 1469 1468 1467 1466 1465 1464 1463 1463 1462 1462 1461 1461 1460 1460 1459 1458 1457 1456 1455 1455 1454 1453 1452 1451 1450 1449 1447 1446 1445 1443 1442 1440 1439
1473 1472 1471 1471 1471 1470 1470 1469 1468 1467 1466 1465 1464 1463 1461 1460 1459 1459 1458 1458 1457 1457 1457 1456 1455 1455 1454 1453 1452 1451 1450 1450 1449 1448 1447 1446 1444 1443 1441 1440 1439 1437 1436
1471 1470 1469 1468 1468 1467 1466 1466 1465 1464 1463 1462 1461 1459 1458 1457 1456 1455 1455 1455 1454 1453 1453 1452 1452 1451 1450 1449 1448 1447 1447 1446 1445 1445 1444 1443 1441 1440 1439 1437 1436 1434 1433
1468 1467 1466 1465 1465 1464 1463 1462 1461 1460 1459 1458 1457 1455 1454 1453 1453 1452 1451 1451 1450 1449 1449 1449 1448 1448 1447 1446 1445 1444 1443 1443 1442 1441 1440 1439 1438 1437 1435 1434 1432 1431 1430
1465 1464 1463 1462 1461 1460 1459 1458 1457 1457 1456 1454 1453 1452 1450 1449 1448 1448 1447 1446 1446 1446 1445 1445 1444 1444 1443 1442 1441 1440 1440 1439 1438 1437 1436 1435 1434 1433 1432 1430 1429 1428 1427
1462 1461 1460 1459 1458 1457 1456 1455 1454 1453 1452 1451 1450 1448 1447 1445 1445 1444 1443 1443 1442 1442 1441 1441 1440 1440 1439 1438 1437 1437 1436 1435 1434 1433 1432 1431 1430 1429 1428 1427 1426 1425 1423
1458 1457 1456 1455 1454 1453 1452 1452 1451 1449 1448 1447 1446 1445 1443 1442 1441 1440 1439 1439 1438 1438 1437 1436 1436 1435 1434 1434 1433 1432 1431 1430 1430 1429 1428 1427 1426 1425 1424 1423 1422 1421 1420
1454 1454 1453 1452 1451 1450 1449 1448 1447 1446 1444 1443 1442 1441 1440 1439 1438 1436 1436 1435 1434 1434 1433 1432 1431 1431 1430 1429 1428 1427 1426 1425 1424 1424 1423 1422 1422 1421 1420 1419 1419 1418 1417